Погода в Бабушкине

Погода в Бабушкине : погода сейчас, прогноз погоды и архив. Всё, что Вы хотите узнать о погоде в Бабушкине!

Поиск расширенной информации на нашем сайте:

Другие новости

Новости СМИ2

Главная страница сайта

Новости сайта

02.10.2013

Напоминаем, что на нашем новом сайте вы можете получить высокодетализированные прогнозы погоды по пунктам России, СНГ и мира (включающие важные для авиации метеовеличины, такие как направление и скорость ветра, видимость, явления погоды, количество и форма облачности, нижняя и верхняя граница облачности), а также ознакомиться с разнообразными материалами по авиационной метеорологии и подборкой полезных ссылок на эту тему.

Сайт Метеоцентр.Азия посвящён разработке технологий оптимизации авиаметеорологического обслуживания, включая проектирование и перспективное создание нескольких автоматизированных авиаметеорологических систем:
- система выпуска высокодетальных прогностических карт явлений погоды для нижнего воздушного пространства по России и ближнему зарубежью;
- система верификации прогнозов TAF (выпускаемых синоптиками официальных АМСГ РФ и ближнего зарубежья) и AUTOTAF (выпускаемых сайтом Метеоцентр.Азия) - выявление ошибок, онлайн-сопоставление с фактической погодой METAR, автоматическое внесение коррективов в прогнозы при резком отклонении фактической погоды от прогноза, подсчёт оправдываемости прогнозов по элементам и в целом;
- система обработки, анализа и отображения авиаметеорологической информации для применения провайдерами метеорологической информации.

Рекомендуем: укладка плитки под ключ, Стоимость укладки тротуарной плитки Москв

Погода в Бабушкине - сегодня

Время (UTC), дата Ветер
(°,м/с) 
Видим.   Явления Облачность Т
(°С)
Тd
(°С)
f(%) Тe
(°С)
Pmin
(гПа)
dP
(гПа)
Po
(мм)
O2
(г/м3)
Тmin Tmax R s Состояние
почвы
06 23.03.17 290 (З) 5{10}  20000 м    9/0 средняя, верхняя 
[Ac trans|Ci sp]
-0.2 -5.5 67 -3  1033.4  -1.1  732  296           
09 23.03.17 290 (З) 20000 м    9/0 средняя, верхняя 
[Ac trans|Cs]
+1.3 -7.7 51 -2  1032.3  -0.7  731  294           
12 23.03.17 290 (З) 20000 м    10/3 600 м средняя 
[Sc|Ac As]
+1.2 -9.5 45 -1  1033.1  0.7  731  294    +1.7       
15 23.03.17 290 (З) 20000 м    9/3 600 м средняя, верхняя 
[Sc|Ac trans|Ci sp]
+0 -9.5 49 -2  1034.2  0.8  732  296           
18 23.03.17 300 (СЗ) 20000 м    9/1 600 м средняя, верхняя 
[Sc|Ac trans|Ci sp]
-4.8 -9.9 67 -6  1035.9  0.6  733  301           
21 23.03.17 290 (З) 20000 м    9/1 600 м средняя, верхняя 
[Sc|Ac trans|Ci sp]
-3.6 -7.2 76 -7  1035.4  -0.2  732  300           
00 24.03.17 290 (З) 20000 м    9/1 600 м средняя, верхняя 
[Sc|Ac trans|Ci sp]
-1.5 -6.8 67 -5  1035.3  0.4  733  298  -5.6      мокрый или
старый снег
50-90% 
03 24.03.17 290 (З) 20000 м    9/3 600 м средняя, верхняя 
[Sc|Ac trans|Ci sp]
-0.8 -6.1 67 -4  1035.7  0.5  733  297           
06 24.03.17 290 (З) 5{11}  20000 м    6/1 600 м верхняя 
[Sc|Ci sp]
+2.1 -4.3 63 -1  1033.2  -1.7  732  293           
09 24.03.17 290 (З) 20000 м    9/0 верхняя 
[Ci sp]
+3.2 -6.6 49 1030.8  -2  730  291           
12 24.03.17 290 (З) 20000 м    9/0 средняя, верхняя 
[Ac lent|Ci sp]
+0.6 -7.2 56 1031.1  -0.3  730  294    +4       
15 24.03.17 290 (З) 20000 м    9/0 средняя, верхняя 
[Ac trans|Ci sp]
+1.4 -10 42 +2  1030.7  -0.3  730  293           
18 24.03.17 тихо ()   20000 м    9/0 средняя, верхняя 
[Ac trans|Ci sp]
-2.5 -8.8 62 -3  1030.9  -0.6  729  297           
21 24.03.17 290 (З) 20000 м    9/0 средняя, верхняя 
[Ac trans|Ci sp]
-1.8 -9.2 57 -4  1030.8  729  297           
00 25.03.17 240 (ЮЗ) 20000 м    9/0 средняя, верхняя 
[Ac trans|Ci sp]
-2.2 -10.1 55 -2  1031.4  0.6  730  297  -5      мокрый или
старый снег
50-90% 
03 25.03.17 290 (З) 20000 м    9/0 средняя, верхняя 
[Ac trans|Ci sp]
+0.5 -7.6 55 -1  1031  0.2  730  294           
06 25.03.17 300 (СЗ) 20000 м    9/0 средняя, верхняя 
[Ac trans|Ci sp]
+2.7 -7.6 47 +2  1028.2  -2.1  728  291           
09 25.03.17 330 (СЗ) 20000 м    8/0 верхняя 
[Ci sp]
+5.8 -14.3 22 +7  1025.3  -2.2  727  288           
12 25.03.17 240 (ЮЗ) 20000 м    4/0 верхняя 
[Ci sp]
+0.7 -11.1 41 -2  1025.2  -1.1  726  293    +6.2       
15 25.03.17 240 (ЮЗ) 20000 м    4/0 верхняя 
[Ci sp]
-0.2 -11.5 42 -4  1024.2  -1.1  725  293           
18 25.03.17 240 (ЮЗ) 20000 м    3/0 верхняя 
[Ci sp]
-0.9 -12.2 42 -3  1022.4  -1.8  724  294           
21 25.03.17 290 (З) 20000 м    3/0 верхняя 
[Ci sp]
-9.2 -11.6 83 -12  1023.6  -0.7  723  303           
00 26.03.17 290 (З) 20000 м    3/0 верхняя 
[Ci sp]
-9.1 -11.7 81 -11  1023.6  0.1  723  302  -10.3      мокрый или
старый снег
50-90% 
03 26.03.17 300 (СЗ) 20000 м    3/0 верхняя 
[Ci sp]
-6.1 -10 74 -8  1024.1  724  299           
06 26.03.17 300 (СЗ) 20000 м    1/0 верхняя 
[Ci sp]
-2.7 -7.3 71 -4  1022.9  -0.3  724  295           
Время (UTC), дата Ветер
(°,м/с) 
Видим.   Явления Облачность Т
(°С)
Тd
(°С)
f(%) Тe
(°С)
Pmin
(гПа)
dP
(гПа)
Po
(мм)
O2
(г/м3)
Тmin Tmax R s Состояние
почвы

Для получения пояснительной информации подведите курсор к названию столбца.

ПОГОДА в Бабушкине - архив

Всё, что Вы хотите узнать о погоде в Бабушкине - удобно и подробно!

Выберите нужную дату (начиная с 1 января 2015* года) и нажмите кнопку "Найти".
Будут отображены архивные сводки погоды по пункту Бабушкин, начиная с указанной даты.


Отображать данные в формате CSV (для использования в таблицах Excel)


Внимание! Наш архив погоды предназначен исключительно для личного некоммерческого использования в познавательных целях. Если Вам необходимы официальные справки о состоянии погоды (для производственных, юридических, коммерческих и т.п. целей), обращайтесь в органы Росгидромета.

*Примечание: данная дата относится к архиву по метеостанциям СССР (Россия, СНГ, Балтия).
Архив по метеостанциям Зарубежной Европы и Азии (кроме Китая) хранится 10 дней, по другим регионам земного шара (Китай, Африка, Америка, Австралия, Океания) - 1 день.

Бабушкин - район местоположения метеостанции


Название, широта, долгота, высота метеостанции:
Бабушкин 51.7°ш. 105.9°д. 467 м над ур. моря [Российская Федерация]

Дополнительная информация

В oтличие oт бoльшинства пoгoдных сайтoв мы публикуем пoдрoбную метеoинфoрмацию в детальнoм прoфессиoнальнoм фoрмате.

Характеристики температуры и влажнoсти вoздуха измеряются на высoте 2 м в тени вдали oт зданий и деревьев.
Скoрoсть ветра измеряется на высoте 10 м (на урoвне рoста челoвека скoрoсть ветра ниже в 1.5-2 раза). Если метеoстанция нахoдится в гoрoде или в лесу, тo скoрoсть ветра занижена на 2-4 м/с пo сравнению с oткрытым местoм. Скoрoсть ветра над акватoриями крупных рек и oзёр, а также на вершинах хoлмoв на 2-5 м/с выше, чем в oбычных услoвиях.
Атмoсфернoе давление в разных тoчках местнoсти мoжет значительнo oтличаться oт давления на метеoстанции, в зависимoсти oт услoвий рельефа (при пoдъёме на 10 м давление пoнижается примернo на 1 мм рт.ст.).